Atlanta, GA

12:49 PM EST on December 12, 2019 (GMT -0500)
The Hartsfield Atlanta International

Weather History for KATL - November, 2019

Change the Weather History Date:

Monday, November 18, 2019

  Actual Average Record
Temperature  
Mean Temperature 56 °F 53 °F  
Max Temperature 64 °F 63 °F 80 °F (1985)
Min Temperature 46 °F 44 °F 18 °F (1891)
Degree Days  
Heating Degree Days 10 12  
Month to date heating degree days 257 170  
Since 1 July heating degree days 309 299  
Cooling Degree Days 0 0  
Month to date cooling degree days 0 11  
Year to date cooling degree days 2643 1883  
Growing Degree Days 6 (Base 50)    
Moisture  
Dew Point 42 °F    
Average Humidity 69    
Maximum Humidity 94    
Minimum Humidity 27    
Precipitation  
Precipitation 0.00 in 0.14 in 1.26 in (1932)
Month to date precipitation 1.87 2.32  
Year to date precipitation 37.79 44.03  
Snow  
Snow 0.00 in 0.00 in 0.00 in (2002)
Month to date snowfall 0.0 0.0  
Since 1 July snowfall 0.0 0.0  
Since 1 September snowfall 0.0 0.0  
Snow Depth 0.00 in    
Sea Level Pressure  
Sea Level Pressure 29.82 in    
Wind  
Wind Speed 4 mph ()    
Max Wind Speed 14 mph    
Max Gust Speed 19 mph    
Visibility 8.5 miles    
Events      
T = Trace of Precipitation, MM = Missing Value Source: Averaged Metar Reports

Daily Weather History Graph

Daily Weather History Graph

Search for Another Location

Airport or City:

Astronomy

Nov. 18, 2019 Rise Set
Actual Time 7:12 AM EST 5:33 PM EST
Civil Twilight 6:45 AM EST 5:59 PM EST
Nautical Twilight 6:15 AM EST 6:30 PM EST
Astronomical Twilight 5:45 AM EST 6:59 PM EST
Moon 11:17 PM EST (11/18) 12:41 PM EST (11/18)
Length of Visible Light 11h 14m
Length of Day
10h 21m
Waning Gibbous, 63% of the Moon is Illuminated
Nov 18
Waning Gibbous
Nov 19
Last Quarter
Nov 26
New
Dec 4
First Quarter
Dec 12
Full

Hourly Weather History & Observations

Time (EST) Temp. Dew Point Humidity Pressure Visibility Wind Dir Wind Speed Gust Speed Precip Events Conditions
12:52 AM 55.9 °F 51.1 °F 84% 29.88 in 10.0 mi Calm Calm - N/A   Overcast
1:48 AM 55.4 °F 51.8 °F 88% 29.86 in 10.0 mi Calm Calm - N/A   Mostly Cloudy
1:52 AM 55.0 °F 51.1 °F 86% 29.86 in 10.0 mi Calm Calm - N/A   Overcast
2:50 AM 53.6 °F 51.8 °F 94% 29.85 in 10.0 mi SW 3.5 mph - N/A   Mostly Cloudy
2:52 AM 54.0 °F 51.1 °F 90% 29.85 in 10.0 mi SW 3.5 mph - N/A   Mostly Cloudy
3:24 AM 53.1 °F 51.1 °F 93% 29.85 in 6.0 mi SW 5.8 mph - N/A   Overcast
3:52 AM 53.1 °F 51.1 °F 93% 29.84 in 0.1 mi SSW 4.6 mph - N/A   Mist
4:52 AM 53.1 °F 51.1 °F 93% 29.84 in 2.0 mi WSW 4.6 mph - N/A   Mostly Cloudy
5:13 AM 52.0 °F 50.0 °F 93% 29.84 in 3.0 mi WSW 3.5 mph - N/A   Overcast
5:46 AM 51.8 °F 48.2 °F 88% 29.83 in 6.0 mi SW 4.6 mph - N/A   Mostly Cloudy
5:52 AM 52.0 °F 48.9 °F 89% 29.83 in 6.0 mi SW 3.5 mph - N/A   Mostly Cloudy
6:52 AM 50.0 °F 48.0 °F 93% 29.84 in 7.0 mi SSW 4.6 mph - N/A   Mostly Cloudy
7:18 AM 50.0 °F 48.0 °F 93% 29.85 in 5.0 mi Calm Calm - N/A   Mostly Cloudy
7:52 AM 48.9 °F 46.0 °F 90% 29.86 in 10.0 mi West 4.6 mph - N/A   Scattered Clouds
8:52 AM 53.1 °F 44.1 °F 71% 29.86 in 10.0 mi West 6.9 mph - N/A   Scattered Clouds
9:52 AM 54.0 °F 39.9 °F 59% 29.85 in 10.0 mi WNW 8.1 mph - N/A   Partly Cloudy
10:52 AM 57.0 °F 35.1 °F 44% 29.84 in 10.0 mi NW 5.8 mph - N/A   Scattered Clouds
11:52 AM 59.0 °F 35.1 °F 41% 29.83 in 10.0 mi Calm Calm - N/A   Partly Cloudy
12:52 PM 62.1 °F 28.0 °F 28% 29.79 in 10.0 mi WSW 5.8 mph - N/A   Scattered Clouds
1:52 PM 61.0 °F 32.0 °F 34% 29.76 in 10.0 mi WNW 8.1 mph - N/A   Scattered Clouds
2:52 PM 63.0 °F 33.1 °F 33% 29.75 in 10.0 mi West 8.1 mph - N/A   Scattered Clouds
3:52 PM 63.0 °F 34.0 °F 34% 29.75 in 10.0 mi West 10.4 mph 18.4 mph N/A   Scattered Clouds
4:52 PM 59.0 °F 34.0 °F 39% 29.76 in 10.0 mi West 6.9 mph - N/A   Mostly Cloudy
5:52 PM 55.9 °F 36.0 °F 47% 29.78 in 10.0 mi West 6.9 mph - N/A   Mostly Cloudy
6:52 PM 54.0 °F 37.0 °F 53% 29.80 in 10.0 mi WNW 9.2 mph - N/A   Mostly Cloudy
7:52 PM 53.1 °F 37.0 °F 55% 29.80 in 10.0 mi WNW 8.1 mph - N/A   Mostly Cloudy
8:52 PM 51.1 °F 37.0 °F 59% 29.80 in 10.0 mi West 6.9 mph - N/A   Mostly Cloudy
9:52 PM 48.9 °F 37.0 °F 64% 29.82 in 10.0 mi West 6.9 mph - N/A   Mostly Cloudy
10:52 PM 48.9 °F 37.0 °F 64% 29.83 in 10.0 mi WNW 10.4 mph - N/A   Mostly Cloudy
11:52 PM 46.9 °F 37.0 °F 68% 29.82 in 10.0 mi WNW 6.9 mph - N/A   Mostly Cloudy